Regional Weather Roundup
Issued by NWS

Home | Current Version | Previous Version | Text Only | Print | Product List | Glossary Off
Versions: 1 2 3 4 5 6 7 8 9 10 11 12 13 14 15 16 17 18 19 20 21 22 23 24 25 26 27 28 29 30 31 32 33 34 35 36 37 38 39 40 41 42 43 44 45 46 47 48 49 50

890
ASUS43 KLOT 312308
RWRIL

ILLINOIS REGIONAL WEATHER ROUNDUP
NATIONAL WEATHER SERVICE CHICAGO/ROMEOVILLE IL
600 PM CDT TUE MAY 31 2016

NOTE: "FAIR" INDICATES FEW OR NO CLOUDS BELOW 12,000 FEET WITH NO
SIGNIFICANT WEATHER AND/OR OBSTRUCTIONS TO VISIBILITY.

* THESE STATIONS ARE NOT UNDER NWS QUALITY CONTROL. THEY ALSO MAY NOT
  REPORT WEATHER SUCH AS PRECIPITATION OR FOG.

ILZ001-002-007-009-015-016-024-010000-
NORTHWEST ILLINOIS

CITY           SKY/WX    TMP DP  RH WIND       PRES   REMARKS
MOLINE         CLOUDY    74  67  78 E8        29.90F
STERLING*      MOSUNNY   72  65  78 E13       29.93S
SAVANNA*       CLOUDY    73  64  73 SE8       29.91F
$$

ILZ003-004-008-010-011-017-018-010000-
NORTH CENTRAL ILLINOIS

CITY           SKY/WX    TMP DP  RH WIND       PRES   REMARKS
ROCKFORD       CLOUDY    67  63  87 E9        29.95F
FREEPORT*      CLOUDY    68  62  82 E7        29.95F
ROCHELLE*      CLOUDY    68  64  88 E18       29.95S
DE KALB*       CLOUDY    65  64  94 E12       29.97F
$$

ILZ005-006-012>014-019>023-010000-
NORTHEAST ILLINOIS

CITY           SKY/WX    TMP DP  RH WIND       PRES   REMARKS
CHICAGO-OHARE  LGT RAIN  66  63  90 NE10      29.98F
CHICAGO-MIDWAY LGT RAIN  67  63  87 NE13      29.97F
AURORA         CLOUDY    67  64  90 NE13      29.96F
LANSING*       RAIN      65  62  91 N7        29.99F
JOLIET*        CLOUDY    69  65  87 NE3       29.97S
WAUKEGAN       LGT RAIN  65  64  97 E5        30.00F
DUPAGE AIRPORT LGT RAIN  66  62  87 E12       29.97F
KANKAKEE*      DRIZZLE   68  62  80 NE10      29.95F
WHEELING       LGT RAIN  65  64  97 N6        30.00F FOG
MORRIS*        CLOUDY    68  64  85 NE6       29.95F
ROMEOVILLE*    CLOUDY    66  61  85 NE9       29.98S
NORTHERLY ISL    N/A     65  61  87 NE6         N/A
$$

LMZ740>746-010000-
SOUTHERN LAKE MICHIGAN

STATION/POSITION SKY/WX   TEMP    WIND        PRES    VSBY  WAVE
                          AIR SEA DIR/SP/G                  HT/PER
                          (F)     (DEG/KT/KT) (MB)    (MI)  (FT/S)
SOUTHERN BUOY              57 56  260/  6/ 17 1016.1R         1
WILMETTE HARBOR            61 59   20/  8/ 10   N/A           1/ 3
HARRISON CRIB              63     320/ 18/ 19   N/A
BURNHAM HARBOR             64      10/  9/ 14   N/A
CALUMET HARBOR                                1016.3R
BURNS HARBOR               65     320/ 13     1015.9R
MICHIGAN CITY              74      50/  6/  6   N/A
MICHIGAN CITY 6N           63 62  300/ 14/ 16   N/A           1
ST. JOSEPH                 65 65  310/ 19/ 25   N/A           3
$$

ILZ025>027-034>036-040-047-049-050-058-095>099-010000-
WEST-CENTRAL ILLINOIS

CITY           SKY/WX    TMP DP  RH WIND       PRES   REMARKS
QUINCY         MOSUNNY   80  62  54 S5        29.88F HX  81
GALESBURG*     PTSUNNY   79  60  50 SE6       29.90F HX  80
MACOMB*        PTSUNNY   81  60  48 S9        29.92S HX  82
JACKSONVILLE*  CLOUDY    81  63  54 SE12      29.89F HX  82
PITTSFIELD*    MOSUNNY   81  66  59 SE5       29.90F HX  83
$$

ILZ028>032-037-038-041>044-048-051>054-059>061-010000-
CENTRAL ILLINOIS

CITY           SKY/WX    TMP DP  RH WIND       PRES   REMARKS
PONTIAC        CLOUDY    77  60  56 NE15      29.94F
BLOOMINGTON    CLOUDY    78  62  57 N6        29.95S
DECATUR        LGT RAIN  71  62  73 NW6       29.93F
PEORIA         CLOUDY    78  61  55 SE3       29.91F HX  80
LACON*         CLOUDY    71  62  75 E9        29.92F
LINCOLN*       CLOUDY    76  61  59 S9        29.92F
SPRINGFIELD    CLOUDY    80  60  50 SE9       29.91F HX  81
TAYLORVILLE    CLOUDY    74  66  74 SE3       29.92F
$$

ILZ033-039-045-046-055>057-062-063-010000-
EAST-CENTRAL ILLINOIS

CITY           SKY/WX    TMP DP  RH WIND       PRES   REMARKS
CHAMPAIGN      CLOUDY    72  63  73 NW14      29.94R THUNDER
RANTOUL*       CLOUDY    72  65  77 NE12      29.96R
MATTOON        PTSUNNY   81  59  47 W7        29.91S HX  81
PARIS*         MOSUNNY   85  57  37 S5        29.92S HX  84
$$

ILZ079-100>102-010000-
SOUTHWEST ILLINOIS

CITY           SKY/WX    TMP DP  RH WIND       PRES   REMARKS
ALTON          MOSUNNY   81  64  57 E6        29.88F HX  82
BELLEVILLE     SUNNY     83  66  56 S2        29.86F HX  85
CAHOKIA*       SUNNY     83  64  52 SE7       29.86F HX  84
SPARTA*        SUNNY     82  64  55 S5        29.89F HX  83
$$

ILZ064>066-069>071-074>076-080>082-084>086-088>090-092>094-010000-
SOUTH-CENTRAL ILLINOIS

CITY           SKY/WX    TMP DP  RH WIND       PRES   REMARKS
CARBONDALE     SUNNY     83  60  45 S8        29.88F HX  83
CAIRO*         SUNNY     84  62  46 SE5       29.87F HX  85
EFFINGHAM*     CLOUDY    78  67  68 W5        29.93S HX  80
MARION         PTSUNNY   84  63  48 SW6       29.89F HX  85
MT. VERNON     CLOUDY    79  66  65 SW6       29.91S HX  81
CENTRALIA*     MOSUNNY   82  68  62 CALM      29.89F HX  85
SALEM*         MOSUNNY   78  67  69 CALM      29.90F
METROPOLIS*    SUNNY     85  65  51 CALM      29.88F HX  87
$$

ILZ067-068-072-073-078-083-087-091-010000-
SOUTHEAST ILLINOIS

CITY           SKY/WX    TMP DP  RH WIND       PRES   REMARKS
LAWRENCEVILLE  PTSUNNY   86  58  38 S13       29.90F HX  85
FLORA*         MOSUNNY   82  66  59 NW7       29.90F HX  84
FAIRFIELD*     MOSUNNY   81  67  61 CALM      29.89R HX  83
HARRISBURG*    MOSUNNY   83  66  55 CALM      29.89F HX  85
ROBINSON*      MOSUNNY   83  61  48 S5        29.91S HX  83
CARMI*         CLOUDY    83  62  49 SE6       29.88F HX  84
$$

ABBREVIATIONS USED IN REMARKS
   TC - TEMPERATURE IN CELSIUS
  WCI - WIND CHILL INDEX
   HX - HEAT INDEX
  VSB - VISIBILITY
$$





USA.gov is the U.S. government's official web portal to all federal, state and local government web resources and services.